Weather Roundup
Issued by NWS Chicago, IL

Home | Current Version | Previous Version | Text Only | Print | Product List | Glossary Off
Versions: 1 2 3 4 5 6 7 8 9 10 11 12 13 14 15 16 17 18 19 20 21 22 23 24 25 26 27 28 29 30 31 32 33 34 35 36 37 38 39 40 41 42 43 44 45 46 47 48 49 50

000
NZUS59 KLOT 181203
HRRLOT

CHICAGO AREA WEATHER ROUNDUP
NATIONAL WEATHER SERVICE CHICAGO/ROMEOVILLE IL
600 AM CST SUN FEB 18 2018

NOTE: "FAIR" INDICATES FEW OR NO CLOUDS BELOW 12,000 FEET WITH NO
SIGNIFICANT WEATHER AND/OR OBSTRUCTIONS TO VISIBILITY.

* THESE STATIONS ARE NOT UNDER NWS QUALITY CONTROL. THEY ALSO MAY NOT
  REPORT WEATHER SUCH AS PRECIPITATION OR FOG.

ILZ005-006-012>014-019>023-181300-
NORTHEAST ILLINOIS

CITY           SKY/WX    TMP DP  RH WIND       PRES   REMARKS
OHARE            N/A     13  11  92 CALM      30.24R FOG
6HR MIN TEMP:  13; 6HR MAX TEMP:  27;

MIDWAY           N/A     21  19  92 SW6       30.25S WCI  13
6HR MIN TEMP:  20; 6HR MAX TEMP:  27;

AURORA         FOG       16  15  96 CALM      30.24R VSB<1/4
6HR MIN TEMP:   9; 6HR MAX TEMP:  25;

LANSING*       FOG       11  10  95 CALM      30.27R VSB 1/4
JOLIET*        FOG       18  17  95 CALM      30.25F VSB<1/4
WAUKEGAN         N/A     21  19  92 W5        30.23R WCI  15
6HR MIN TEMP:  17; 6HR MAX TEMP:  27;

DUPAGE AIRPORT FOG       14  13  95 CALM      30.23S VSB 1/4
6HR MIN TEMP:  10; 6HR MAX TEMP:  24;

WHEELING         N/A     17  15  92 CALM      30.25F FOG
6HR MIN TEMP:  14; 6HR MAX TEMP:  27;

KANKAKEE*      FOG        7   4  86 SE7       30.27S VSB<1/4 WCI  -5
MORRIS*        FOG        8   4  86 E3        30.24F VSB 1/4
LEWIS AIRPORT* FOG       16  15  95 SE6       30.25S VSB 1/2 WCI   7
NORTHERLY ISL    N/A     24  21  88 SW8         N/A  WCI  15
$$

WIZ051-052-058>065-066-070>072-181300-
SOUTHEAST WISCONSIN

CITY           SKY/WX    TMP DP  RH WIND       PRES   REMARKS
MILWAUKEE        N/A     23  20  88 W5        30.23R WCI  17
6HR MIN TEMP:  22; 6HR MAX TEMP:  28;

KENOSHA*         N/A     20  17  88 SW3       30.24R FOG
RACINE*          N/A     22  20  92 W7        30.25R WCI  13
BURLINGTON       N/A     14  12  90 CALM        N/A  FOG
WAUKESHA       CLEAR     12  10  92 S3        30.22R
WEST BEND        N/A     19  19 100 CALM      30.20S FOG
$$

INZ001>003-010>013-019-020-181300-
NORTHWEST INDIANA

CITY           SKY/WX    TMP DP  RH WIND       PRES   REMARKS
GARY*          CLEAR     21  19  93 S7        30.27S WCI  13
MICHIGAN CITY* NOT AVBL
RENSSELAER*    NOT AVBL
VALPARAISO       N/A     20  17  88 CALM      30.27S FOG
$$

LMZ740>746-181300-
SOUTHERN LAKE MICHIGAN

STATION/POSITION TIME  SKY/WX   TEMP WIND        PRES    VSBY
                                AIR  DIR/SP/G
                 (UTC)          (F)  (DEG/KT/KT) (MB)    (MI)
HARRISON CRIB    1140            27  180/ 11/ 12   N/A
BURNHAM HARBOR   1200            24  260/  1/  8   N/A
CALUMET HARBOR   1130            22  180/  3/  4 1023.9S
BURNS HARBOR     1140            24  180/  6/  9 1025.4S
MICHIGAN CITY    1140            24  140/  9/  9   N/A
$$

ABBREVIATIONS USED IN REMARKS
   TC - TEMPERATURE IN CELSIUS
  WCI - WIND CHILL INDEX
   HX - HEAT INDEX
  VSB - VISIBILITY
$$




USA.gov is the U.S. government's official web portal to all federal, state and local government web resources and services.